USA 134                 
1 25019U 97065A   19266.49646723 -.00000065  00000-0  00000+0 0  9990
2 25019   9.9067  37.8404 0004189 260.9712 130.0453  1.00276039  6959
IABS R/B                
1 25021U 97065C   19266.36664477 -.00000209  00000-0  00000+0 0  9995
2 25021  14.4581  12.3991 0031535 103.7040 272.2314  1.01061352 81641